Location: Vojnic
(45.3264°N, 15.6972°E)
Time: 06:06:55
(UTC+01:00)

USA 238 DEB - Pass Details

Date: 29 September 2022
Orbit: 955 x 1257 km, 63.4° (Epoch: 25 November)

Event Time Altitude Azimuth Distance (km) Brightness Sun altitude
Rises 05:59:03 0° 194° (SSW) 3,631 6.3 -10.2°
Reaches altitude 10° 06:01:39 10° 187° (S) 2,706 5.7 -9.8°
Maximum altitude 06:07:37 45° 117° (ESE) 1,345 4.8 -8.7°
Drops below altitude 10° 06:13:55 10° 48° (NE) 2,873 6.8 -7.6°
Sets 06:16:45 0° 42° (NE) 3,877 7.4 -7.1°
